User: anonymous
Location: Unspecified
(0.0000°N, 0.0000°E)
Time: 19:20:40
(UTC+00:00)
Language:

STSS DEMO 1 (USA 208) - Orbit

View from above orbital plane
View from above orbital plane
View from above satellite
View from above satellite

Ground track
Ground track

The orbit data is extracted from the following two-line orbital elements,

1 35937U 09052A   14170.91434248 0.00000010  00000-0  44345-4 0    09
2 35937  57.9887  99.3926 0018464 232.2867 127.7133 12.79133320    09
Epoch (UTC): 19 June 2014 21:56:39
Eccentricity: 0.0018464
inclination: 57.9887°
perigee height: 1330 km
apogee height: 1359 km
right ascension of ascending node: 99.3926°
argument of perigee: 232.2867°
revolutions per day: 12.79133320
mean anomaly at epoch: 127.7133°
orbit number at epoch: 0

The dashed part of the orbit path shows where the satellite is in the earth's shadow,  

DLR